Regional Weather Roundup
Issued by NWS

Home | Current Version | Previous Version | Graphics & Text | Print | Product List | Glossary Off
Versions: 1 2 3 4 5 6 7 8 9 10 11 12 13 14 15 16 17 18 19 20 21 22 23 24 25 26 27 28 29 30 31 32 33 34 35 36 37 38 39 40 41 42 43 44 45 46 47 48 49 50

000
ASUS43 KDMX 281007
RWRIA

WEATHER ROUNDUP FOR IOWA
NATIONAL WEATHER SERVICE DES MOINES IA
500 AM CDT MON JUL 28 2014

NOTE: "FAIR" INDICATES FEW OR NO CLOUDS BELOW 12,000 FEET WITH NO
SIGNIFICANT WEATHER AND/OR OBSTRUCTIONS TO VISIBILITY.

* - THESE STATIONS ARE NOT NWS STATIONS...THUS NOT UNDER NWS
QUALITY CONTROL.  THEY ALSO DO NOT REPORT WEATHER SUCH
AS PRECIPITATION OR FOG.

IAZ001>003-012>014-020>022-031>034-043>046-281100-
   NORTHWEST IOWA

CITY           SKY/WX    TMP DP  RH WIND       PRES   REMARKS
CARROLL *      PTCLDY    57  55  94 NW7       30.19R
CHEROKEE *     CLEAR     57  55  94 N5        30.22R
DENISON *      CLEAR     57  55  94 NW5       30.19R
LE MARS *      CLEAR     57  54  88 CALM      30.24R
ORANGE CITY *  CLOUDY    61  54  77 N8        30.23S
SHELDON *      CLOUDY    55  55 100 NW7       30.22R
SIOUX CITY     CLEAR     59  54  83 N6        30.22S
SPENCER        CLEAR     53  52  96 NW6       30.21R
STORM LAKE *   CLEAR     55  55 100 NW8       30.22R
$$

IAZ055>058-069>071-079>083-090>094-281100-
   SOUTHWEST IOWA

CITY           SKY/WX    TMP DP  RH WIND       PRES   REMARKS
ATLANTIC *     CLEAR     57  55  94 N7        30.19R
AUDUBON *      CLEAR     59  55  88 NW6       30.20R
CLARINDA *     CLEAR     59  55  88 N5        30.20S
COUNCIL BLFS * CLOUDY    59  57  94 N5        30.20R
CRESTON *      MOCLDY    55  55 100 NW6       30.18R
HARLAN  *      CLEAR     57  55  94 N5        30.24R
LAMONI         CLEAR     58  56  93 NW8       30.15R
RED OAK *      CLEAR     59  55  88 N9        30.19S
SHENANDOAH *   CLEAR     57  55  94 CALM      30.20S
$$

IAZ047>049-059>061-072>074-084-281100-
   CENTRAL IOWA

CITY           SKY/WX    TMP DP  RH WIND       PRES   REMARKS
AMES           CLEAR     60  59  96 NW7       30.15R
ANKENY *       CLEAR     61  59  94 NW7       30.15R
CHARITON *     PTCLDY    61  59  94 N10       30.13R
DES MOINES     PTCLDY    63  58  83 N7        30.14R
GRINNELL*      CLEAR     59  57  94 N7        30.14R
KNOXVILLE *    CLEAR     63  59  88 N10       30.12R
MARSHALLTOWN   CLEAR     59  56  89 N7        30.13R
PELLA *        CLEAR     61  59  94 NW7       30.14R
PERRY *          N/A     59  57  94 NW6       30.17R
$$

IAZ004>006-015-016-023>025-035-036-281100-
   NORTH CENTRAL IOWA

CITY           SKY/WX    TMP DP  RH WIND       PRES   REMARKS
ALGONA *       CLOUDY    61  59  94 N6        30.19R
CLARION *      PTCLDY    57  57 100 N6        30.17R
ESTHERVILLE    CLOUDY    59  58  96 NW6       30.20R
FORT DODGE *   MOCLDY    57  55  94 NW3       30.19R
MASON CITY     CLOUDY    58  56  93 N6        30.18R
FOREST CITY *  CLOUDY    61  57  88 N5        30.18R
IOWA FALLS *     N/A     57  54  88 N3        30.17R
$$

IAZ007>011-017>019-026>030-037>042-050>054-066-281100-
   NORTHEAST IOWA

CITY           SKY/WX    TMP DP  RH WIND       PRES   REMARKS
CEDAR RAPIDS   CLEAR     59  56  89 N10       30.10R
CHARLES CITY * CLOUDY    59  55  88 N5        30.16R
CLINTON *      CLEAR     57  54  88 N6        30.09R
DECORAH *      PTCLDY    55  52  88 N6        30.14R
DUBUQUE        CLEAR     57  54  89 N12       30.09R
MONTICELLO *   CLEAR     57  57 100 N7        30.09R
OELWEIN *      CLEAR     57  54  88 N10       30.14R
WATERLOO       MOCLDY    57  55  93 N8        30.13R
$$

IAZ064-065-067-068-078-281100-
   EAST CENTRAL IOWA

CITY           SKY/WX    TMP DP  RH WIND       PRES   REMARKS
DAVENPORT      CLEAR     59  53  80 N9        30.07R
IOWA CITY      PTCLDY    63  59  87 N10       30.10R
MT. PLEASANT * MOCLDY    63  61  94 NW9       30.08R
MUSCATINE *    CLOUDY    63  59  88 N7        30.08R
QUAD CITIES    MOCLDY    64  55  72 N8        30.05R
$$

IAZ062-063-075>077-085>089-095>099-281100-
   SOUTHEAST IOWA

CITY           SKY/WX    TMP DP  RH WIND       PRES   REMARKS
BURLINGTON     CLEAR     63  60  90 N9        30.06R
FAIRFIELD *    PTCLDY    61  59  94 NW7       30.10R
FORT MADISON * CLEAR     63  63 100 NW5       30.08R
KEOKUK *       CLEAR     63  61  94 N7        30.06R
OSKALOOSA *      N/A     59  59 100 NW6       30.12R
CENTERVILLE *  CLEAR     61  61 100 N8        30.13R
OTTUMWA        CLEAR     60  58  92 NW9       30.11R
WASHINGTON *   MOCLDY    63  61  94 N9        30.09R
$$

ABBREVIATIONS USED IN REMARKS
   TC - TEMPERATURES IN CELSIUS
  WCI - WIND CHILL INDEX
   HX - HEAT INDEX
  VSB - VISIBILITY
$$




USA.gov is the U.S. government's official web portal to all federal, state and local government web resources and services.